Hourly Data Report for May 21, 2018

DRYDEN REGIONAL
ONTARIO
Current Station Operator: NAVCAN

49°49'39.000" N
92°44'39.000" W
412.70 m
6032125
71527
YHD

Download Data

Hourly Data (May 2018)
Hourly Data Report for May 21, 2018
TIME
LST
Temp Definition
°C
Dew Point Definition
°C
Rel Hum Definition
%
Precip. Amount Definition
mm

Wind Dir Definition
10's deg

Wind Spd Definition
km/h
Visibility Definition
km
Stn Press Definition
kPa
Hmdx Definition


Wind Chill Definition


Weather Definition


00:00 13.5 -1.2 36 0.0 21 11 16.1 97.09     LegendNANA
01:00 12.7 -0.9 39 0.0 21 11 16.1 97.08     LegendNANA
02:00 11.5 -0.2 44 0.0 21 13 16.1 97.10     LegendNANA
03:00 10.7 0.2 48 0.0 21 11 16.1 97.12     LegendNANA
04:00 10.5 0.6 50 0.0 20 13 16.1 97.12     LegendNANA
05:00 10.1 1.0 53 0.0 21 11 16.1 97.12     LegendNANA
06:00 11.2 2.2 54 0.0 20 8 16.1 97.15     LegendNANA
07:00 13.8 2.7 47 0.0 24 9 16.1 97.13     LegendNANA
08:00 17.5 3.0 38 0.0 26 9 16.1 97.12     LegendNANA
09:00 19.9 2.9 32 0.0 23 9 16.1 97.08     LegendNANA
10:00 21.5 0.6 25 0.0 25 18 16.1 97.01     LegendNANA
11:00 22.2 -0.6 22 0.0 LegendMM 5 16.1 96.95     LegendNANA
12:00 22.7 -0.1 22 0.0 23 22 16.1 96.90     LegendNANA
13:00 23.5 0.9 22 0.0 16 22 16.1 96.80     LegendNANA
14:00 23.5 -0.4 20 0.0 15 9 16.1 96.74     LegendNANA
15:00 24.4 -0.2 20 0.0 14 13 16.1 96.68     LegendNANA
16:00 24.3 -0.5 19 0.0 23 11 16.1 96.62     LegendNANA
17:00 24.5 -1.7 17 0.0 28 17 16.1 96.59     LegendNANA
18:00 23.8 -1.7 18 0.0 26 15 16.1 96.56     LegendNANA
19:00 22.6 -1.2 20 0.0 24 11 16.1 96.54     LegendNANA
20:00 20.2 -1.3 23 0.0 24 11 16.1 96.52     LegendNANA
21:00 18.4 -1.1 26 0.0 23 9 16.1 96.55     LegendNANA
22:00 17.0 -0.6 30 0.0 26 8 16.1 96.57     LegendNANA
23:00 16.1 1.0 36 0.0 25 5 16.1 96.55     LegendNANA

Notes on Data Quality.

Legend

  • E = Estimated
  • M = Missing
  • NA = Not Available*
  • [empty] = Indicates an unobserved value
Date modified: